Van Nuys, CA

7:17 AM PDT on July 20, 2017 (GMT -0700)
Van Nuys

Weather History for KVNY - June, 2013

Change the Weather History Date:

Sunday, June 2, 2013

  Actual Average Record
Temperature  
Mean Temperature 70 °F -  
Max Temperature 80 °F 76 °F 93 °F (2006)
Min Temperature 62 °F 55 °F 52 °F (1999)
Cooling Degree Days 6    
Growing Degree Days 20 (Base 50)    
Moisture  
Dew Point 57 °F    
Average Humidity 69    
Maximum Humidity 83    
Minimum Humidity 47    
Precipitation  
Precipitation 0.00 in - - ()
Sea Level Pressure  
Sea Level Pressure 29.78 in    
Wind  
Wind Speed 4 mph (SE)    
Max Wind Speed 12 mph    
Max Gust Speed 17 mph    
Visibility 7 miles    
Events      
Averages and records for this station are not official NWS values.
T = Trace of Precipitation, MM = Missing Value Source: NWS Daily Summary

Daily Weather History Graph

Daily Weather History Graph

Search for Another Location

Airport or City:

Trip Planner

Search our weather history database for the weather conditions in past years. The results will help you decide how hot, cold, wet, or windy it might be!

Date:

Astronomy

Jun. 02, 2013 Rise Set
Actual Time 5:42 AM PDT 8:01 PM PDT
Civil Twilight 5:14 AM PDT 8:30 PM PDT
Nautical Twilight 4:38 AM PDT 9:05 PM PDT
Astronomical Twilight 4:00 AM PDT 9:44 PM PDT
Moon 1:58 AM PDT (6/2) 2:49 PM PDT (6/2)
Length of Visible Light 15h 16m
Length of Day
14h 18m
Waning Crescent, 30% of the Moon is Illuminated
Jun 2
Waning Crescent
Jun 8
New
Jun 16
First Quarter
Jun 23
Full
Jun 29
Last Quarter

Hourly Weather History & Observations

Time (PDT) Temp. Dew Point Humidity Pressure Visibility Wind Dir Wind Speed Gust Speed Precip Events Conditions
12:35 AM 64.4 °F 57.2 °F 77% 29.81 in 6.0 mi Calm Calm - N/A   Haze
12:51 AM 64.9 °F 57.9 °F 78% 29.78 in 6.0 mi Calm Calm - N/A   Haze
1:51 AM 64.0 °F 57.9 °F 80% 29.77 in 5.0 mi South 4.6 mph - N/A   Haze
2:20 AM 64.4 °F 57.2 °F 77% 29.79 in 5.0 mi Calm Calm - N/A   Haze
2:51 AM 64.0 °F 57.9 °F 80% 29.76 in 5.0 mi Calm Calm - N/A   Haze
3:00 AM 64.4 °F 59.0 °F 83% 29.78 in 5.0 mi SSE 4.6 mph - N/A   Haze
3:51 AM 64.9 °F 59.0 °F 81% 29.75 in 5.0 mi Calm Calm - N/A   Haze
4:51 AM 64.9 °F 59.0 °F 81% 29.75 in 5.0 mi Calm Calm - N/A   Haze
5:00 AM 66.2 °F 57.2 °F 73% 29.77 in 6.0 mi East 3.5 mph - N/A   Haze
5:51 AM 64.9 °F 59.0 °F 81% 29.75 in 5.0 mi Calm Calm - N/A   Haze
6:51 AM 66.0 °F 59.0 °F 78% 29.77 in 4.0 mi Calm Calm - N/A   Haze
7:51 AM 68.0 °F 59.0 °F 73% 29.78 in 4.0 mi Variable 4.6 mph - N/A   Haze
8:51 AM 68.0 °F 59.0 °F 73% 29.80 in 4.0 mi SE 5.8 mph - N/A   Haze
9:51 AM 71.1 °F 57.9 °F 63% 29.80 in 7.0 mi Calm Calm - N/A   Scattered Clouds
10:51 AM 75.0 °F 57.9 °F 55% 29.80 in 9.0 mi SE 9.2 mph - N/A   Clear
11:51 AM 75.9 °F 57.9 °F 54% 29.79 in 10.0 mi SSE 11.5 mph - N/A   Clear
12:51 PM 78.1 °F 57.9 °F 50% 29.78 in 10.0 mi ESE 9.2 mph - N/A   Clear
1:51 PM 78.1 °F 57.0 °F 48% 29.76 in 10.0 mi SE 9.2 mph - N/A   Clear
2:51 PM 79.0 °F 57.0 °F 47% 29.75 in 10.0 mi SSE 11.5 mph - N/A   Clear
3:51 PM 77.0 °F 55.9 °F 48% 29.75 in 10.0 mi SE 10.4 mph 17.3 mph N/A   Clear
4:51 PM 75.0 °F 55.9 °F 51% 29.75 in 10.0 mi SE 10.4 mph - N/A   Clear
5:51 PM 72.0 °F 55.9 °F 57% 29.74 in 10.0 mi SSE 10.4 mph - N/A   Clear
6:51 PM 70.0 °F 55.9 °F 61% 29.75 in 10.0 mi SSE 8.1 mph - N/A   Clear
7:51 PM 64.9 °F 55.9 °F 73% 29.77 in 10.0 mi South 8.1 mph - N/A   Clear
8:51 PM 63.0 °F 55.0 °F 75% 29.78 in 10.0 mi SSE 8.1 mph - N/A   Clear
9:51 PM 62.1 °F 55.0 °F 78% 29.80 in 9.0 mi South 4.6 mph - N/A   Partly Cloudy
10:00 PM 62.6 °F 55.4 °F 77% 29.82 in 9.0 mi SE 5.8 mph - N/A   Mostly Cloudy
10:51 PM 64.0 °F 55.0 °F 73% 29.80 in 8.0 mi SE 4.6 mph - N/A   Overcast
11:51 PM 63.0 °F 55.0 °F 75% 29.80 in 8.0 mi SE 8.1 mph - N/A   Overcast